Location: Bailey Volunteer Fire Department
(33.4359°N, 96.1680°W)
Time: 16:39:12
(UTC+00:00)

Cosmos 2084 Rocket - Pass Details

Date: 13 December 2025
Orbit: 545 x 569 km, 62.8° (Epoch: 14 January)

Event Time Altitude Azimuth Distance (km) Brightness Sun altitude
Rises 23:41:56 0° 330° (NNW) 2,767 7.0 -5.3°
Reaches altitude 10° 23:44:10 10° 332° (NNW) 1,869 6.1 -5.8°
Maximum altitude 23:48:23 77° 59° (ENE) 586 3.3 -6.6°
Drops below altitude 10° 23:52:35 10° 145° (SE) 1,858 5.9 -7.4°
Sets 23:54:48 0° 147° (SSE) 2,750 6.8 -7.8°
